User: anonymous   Login
Location: Ariel
(45.9570°N, 122.5700°W)
Time: 11:07:43
(UTC-07:00)
Language:

Vanguard 3 - Orbit

View from above orbital plane
View from above orbital plane
View from above satellite
View from above satellite

Ground track
Ground track

The orbit data is extracted from the following two-line orbital elements,

1    20U 59007A   20226.66723162  .00000308  00000-0  11340-3 0  9991
2    20  33.3516 338.2517 1665866 210.2566 139.0600 11.55708298237258
Epoch (UTC): 13 August 2020 16:00:48
Eccentricity: 0.1665866
inclination: 33.3516°
perigee height: 509 km
apogee height: 3262 km
right ascension of ascending node: 338.2517°
argument of perigee: 210.2566°
revolutions per day: 11.55708298
mean anomaly at epoch: 139.0600°
orbit number at epoch: 23725

The dashed part of the orbit path shows where the satellite is in the earth's shadow,  

DLR